Location: Perryvale
(54.4667°N, 113.3833°W)
Time: 20:59:46
(UTC+00:00)

SR - Pass Details

Date: 19 May 2024
Orbit: 580 x 858 km, 66.7° (Epoch: 19 June)

Event Time Altitude Azimuth Distance (km) Brightness Sun altitude
Rises 10:04:34 0° 317° (NW) 2,933 ? -8.6°
Reaches altitude 10° 10:06:54 10° 317° (NW) 1,987 ? -8.4°
Maximum altitude 10:11:21 85° 231° (SW) 603 ? -8.0°
Drops below altitude 10° 10:15:35 10° 142° (SE) 1,899 ? -7.6°
Sets 10:17:47 0° 142° (SE) 2,790 ? -7.4°
